MAGION 3

Satellite information

Favourite Embed

Satellite Type and Status

PAYLOADIN ORBIT

Key statistics

Satellite MAGION 3 at a glance.

Uptime

12255

Days in orbit

Revolutions

≈ 12.2

Per day

Orbit

HEO

HEO

Inclination

82.5

Latest

Satellite identification and parameters

Extended collection of information and parameters for MAGION 3.

Object identification

Identified? True

Debris? False

Object name: MAGION 3

International designator: 1991-086E

Object number (NORAD): 21835

Object ID (CCSDS): 21835

Country: CZECHOSLOVAKIA (CZCH)

Current information (Y/N): Y

RCS size: MEDIUM

Orbital parameters

Period: 118.05 minutes

Inclination: 82.5339 deg

SMA: 7971.466 km

Apoapsis: 2755.196 km

Periapsis: 431.466 km

RAAN: 37.2866 deg

Eccentricy: 0.145753

Argument of periapsis: 135.4005 deg

Mean anomaly: 237.4124 deg

Mean motion: 12.19819164 rev/day

Mean motion (dot): 0.00002411 rev/day2

B* drag term: 0.00043394 1/REarth

Two-line elements (TLE)

Creation date: July 6, 2025, 6:05 p.m.

Reference frame: TEME

Reference center: EARTH

Epoch: July 6, 2025, 2:40 p.m. UTC

TLE line 0: 0 MAGION 3

TLE line 1: 1 21835U 91086E 25187.61129565 .00002411 00000-0 43394-3 0 9995

TLE line 2: 2 21835 82.5339 37.2866 1457530 135.4005 237.4124 12.19819164471418

Live tracking on map

Real-time ground track for satellite MAGION 3.

In-orbit conjunctions

A list of the most updated potential collisions computed for object MAGION 3.

Target Orbit TCA Probability of collision Miss distance Type
SL-8 DEB LEO 2025-02-01 08:04:02 0.0001054777 451.0 (m) DEBRIS

Associated space launch

Scientific satellite dedicated to the ionosphere and magnetosphere

MAGION 3 was lifted into orbit during the mission ‘Tsiklon-3 | AUOS-Z-AP-IK 1’, on board a Tsiklon-3 space rocket.

The launch took place on Dec. 18, 1991, 3:54 a.m. from 32/2.

For more information about the launch, click the button.

Launch to space Tsiklon-3 | AUOS-Z-AP-IK 1
Tsiklon-3 | AUOS-Z-AP-IK 1

Agency: N/A

Status: Launch Successful

Launch date: Dec. 18, 1991, 3:54 a.m. UTC

Rocket: Tsiklon-3

Launch pad: 32/2

Location: Plesetsk Cosmodrome, Russian Federation

...

Latest news about this satellite

There are no fresh news available about this satellite. Check back as we update our databases every day.


Newsletter sign-up

Weekly statistics, charts and insights to help you stay on top of the space industry.